STARLINK-1740, 46566

Orbit data source: Space-Track

STARLINK-1740, 46566 is a payload satellite owned by SpaceX/Seattle (US) in LEO that was launched on Tue, 06 Oct 2020 UTC via an FALCON 9 launch vehicle from the Air Force Eastern Test Range (AFETR). Payload-class satellites include a variety of spacecraft equipped with specific instruments for various scientific and technological missions. These include communications satellites like Starlink; space stations such as the ISS; scientific satellites like the Hubble; Earth observation satellites from companies like Planet Labs, Umbra, and HawkEye 360; GPS; miniature CubeSats for education and research; and military/defense satellites.

Loading next visibility...
Identifier
46566, 2020-070AL
Orbit
LEO
Country
Flag of USUS
Related business
Manufacturer
SpaceX/Seattle
Mission
Partially operational Commercial Communications
Bus & Motor
STARLINK, Unknown motor
Mass
260 kg wet, ~248 kg dry
Launch date (UTC)
2020-10-06 (5 years ago)
Launch vehicle
FALCON 9
Launch site
Air Force Eastern Test Range (AFETR)
Object type
Payload
Rocket body
Debris
Shape & HBR
Box + 1 Pan, 10.1 m
Radar Cross Section
13.562 m², Large (>1 m²)

Expand to show TLE details & history
Last TLE update: 3 hours ago

TLE from 3 hours ago
0 STARLINK-1740
1 46566U 20070AL  25300.33336806  .00098262  00000-0  18257-2 0  9990
2 46566  53.0487  18.4854 0009574 296.3472   9.3805 15.48094806  5694
Epoch: 2025-10-27T08:00Z
TLE epoch observation values (Epoch: 2025-10-27T08:00:03.000Z)
Latitude
-40.6404°
Longitude
-177.40951°
Altitude
429.294 km
Speed
7.657 km/s
True Right ascension
22h 34m 09s
True Declination
-40° 27' 44"
Sunlit
Object was in daylight at epoch
Visualization orbit readout
Latitude
Unknown
Longitude
Unknown
Altitude
Unknown
Speed
Unknown
Apparent Right ascension
Unknown
Apparent Declination
Unknown
Sunlit
N/A
Visualization observer readout
Local Sidereal Time
06:50:13
Azimuth
Unknown
Elevation
Unknown
Doppler factor
Unknown
Orbital elements
Apogee altitude
429.087 km
Perigee altitude
416.065 km
Semi-major axis
6,800.713 km
Eccentricity
0.00096
Inclination
53.0487°
RAAN
18.4854°
Arg. of periapsis
296.3472°
True anomaly
9.3984°
Mean anomaly
9.3805°
Eccentric anomaly
9.38945°
Mean motion
3.87 °/min
Orbital period
93.02 mins
BSTAR
0.0018257
Loading maneuver chart data...
Computing Atmospheric mass density...

Documentation

Showing up to 5 results
|